Regional Weather Roundup
Issued by NWS Bismarck, ND

Home | Current Version | Previous Version | Text Only | Print | Product List | Glossary On
Versions: 1 2 3 4 5 6 7 8 9 10 11 12 13 14 15 16 17 18 19 20 21 22 23 24 25 26 27 28 29 30 31 32 33 34 35 36 37 38 39 40 41 42 43 44 45 46 47 48 49 50
000
ASUS43 KBIS 220020
RWRBIS

NWR BROADCAST TEXT
NATIONAL WEATHER SERVICE BISMARCK ND
700 PM CDT THU MAY 21 2015

NOTE: "FAIR" INDICATES FEW OR NO CLOUDS BELOW 12,000 FEET WITH NO
SIGNIFICANT WEATHER AND/OR OBSTRUCTIONS TO VISIBILITY.


CITY           SKY/WX    TMP DP  RH WIND       PRES   REMARKS
WILLISTON      MOSUNNY   74  29  19 S12       30.09F
MINOT          SUNNY     73  30  20 N10       30.09F
MINOT AFB      SUNNY     74  34  23 NE9       30.08F
BISMARCK       CLOUDY    69  41  36 E5        30.10F
DICKINSON      SUNNY     70  31  23 E8        30.10F
GARRISON         N/A     70  37  29 SW3       30.10F
HETTINGER ARPT SUNNY     67  32  27 SE13      30.14F
JAMESTOWN      SUNNY     70  37  29 NE10      30.10F
BEACH          FAIR      66  30  26 SE16G22   30.11F
CARRINGTON     FAIR      66  32  28 NE12      30.12F
CROSBY         FAIR      73  27  17 E9        30.10F
HARVEY           N/A     72  32  23 E8        30.11F
HAZEN          FAIR      70  32  24 NE5       30.10F
LINTON         FAIR      72  39  30 W6        30.10F
MANDAN         CLOUDY    73  32  21 NW7       30.11S
OAKES            N/A     70  37  30 NW12      30.10F
STANLEY        FAIR      72  30  21 VRB7G15   30.11F
TIOGA          FAIR      72  27  18 E9        30.13F
WATFORD CITY   MOCLDY    73  28  19 SE7       30.07F
$$

CITY           SKY/WX    TMP DP  RH WIND       PRES   REMARKS
GRAND FORKS    SUNNY     67  36  31 N8        30.10F
GRAND FORKS AF SUNNY     67  34  29 N10       30.11F
DEVILS LAKE    SUNNY     70  28  21 NE7       30.11S
FARGO          SUNNY     68  36  30 NW12      30.09F
CANDO          FAIR      68  28  22 NE8       30.12F
CAVALIER       FAIR      66  36  32 NE6       30.11F
GRAFTON        FAIR      66  37  34 N10       30.11F
LANGDON        FAIR      66  32  28 N8G15     30.12F
ROLLA          FAIR      66  28  24 CALM      30.13F
WALHALLA       FAIR      66  32  28 NE3       30.12S
$$

CITY           SKY/WX    TMP DP  RH WIND       PRES   REMARKS
ABERDEEN       SUNNY     74  38  27 N10       30.09F
MOBRIDGE       SUNNY     74  29  19 SW6       30.09F
BUFFALO          N/A     66  27  23 SE18G26   30.05F
RAPID CITY     SUNNY     63  35  35 S10G20    30.13F
GLASGOW        SUNNY     72  29  20 SE20G25   30.05F
SIDNEY         SUNNY     73  34  23 E8        30.08F
WOLF POINT     SUNNY     74  34  23 SE9       30.07F
GLENDIVE       SUNNY     70  32  24 SE14      30.09F
MILES CITY     SUNNY     71  25  17 SE20G26   30.03F
BAKER          SUNNY     67  30  25 SE18      30.11F
$$

CITY           SKY/WX    TMP DP  RH WIND       PRES   REMARKS
BILLINGS       MOSUNNY   65  38  36 E17       29.98F
GREAT FALLS    MOSUNNY   69  38  32 SE14G21   29.93F
REGINA         MOSUNNY   73  30  20 S8        30.08F
ESTEVAN        PTSUNNY   73  27  17 E8        30.10F
$$



USA.gov is the U.S. government's official web portal to all federal, state and local government web resources and services.